Location: Ottawa
(45.4170°N, 75.7000°W)
Time: 16:28:05
(UTC-04:00)

Daily predictions for brighter satellites

Satellite Brightness Start Highest point End
(mag) Time Altitude Azimuth Time Altitude Azimuth Time Altitude Azimuth
NOSS 3-2 (C) 3.6 21:01:29 10° SW 21:07:32 86° NW 21:14:17 10° NE
Cosmos 2279 Rocket 4.5 21:04:47 10° N 21:10:47 44° ENE 21:16:42 10° SSE
Meteor 2-3 Rocket 3.8 21:06:46 10° S 21:12:29 85° E 21:18:10 10° NNE
CZ-4B DEB 2.8 21:10:38 10° SSE 21:13:29 51° ENE 21:16:21 10° N
Okean 1-7 3.3 21:09:33 10° N 21:13:53 53° ENE 21:18:11 10° SSE
Cosmos 2346 Rocket 4.5 21:09:42 10° S 21:15:44 86° E 21:21:51 10° N
Cosmos 1825 3.1 21:12:33 10° SSE 21:15:50 29° E 21:19:08 10° NNE
CENTAUR R/B 2.8 21:12:52 10° S 21:18:33 45° ESE 21:24:57 10° NE
Cosmos 1782 3.1 21:15:47 10° N 21:19:40 49° ENE 21:23:32 10° SSE
Cosmos 2142 Rocket 4.5 21:13:57 10° N 21:20:07 76° E 21:26:15 10° SSE
Cosmos 2344 4.2 21:15:45 10° S 21:22:27 34° ESE 21:29:41 10° NE
SPOT 5 4.0 21:18:05 10° SE 21:22:51 34° ENE 21:27:33 10° N
Aureole 1 4.3 21:22:00 10° SSW 21:25:03 87° ESE 21:28:44 10° NNE
Envisat 3.9 21:20:18 10° S 21:25:13 50° W 21:30:10 10° NNW
MetOp-A 4.5 21:20:37 10° SE 21:25:47 51° ENE 21:30:58 10° N
Cosmos 372 Rocket 4.4 21:21:07 10° S 21:25:52 40° ESE 21:30:37 10° NE
Cosmos 1703 Rocket 3.9 21:26:29 10° NNW 21:30:53 70° W 21:35:13 10° S
DNEPR-1 R/B 3.9 21:29:41 10° SSW 21:34:42 52° ESE 21:39:04 10° NE
Cosmos 1943 Rocket 2.3 21:29:37 10° S 21:35:00 51° ESE 21:40:23 10° NE
Cosmos 1892 4.2 21:31:52 10° SSW 21:35:31 40° WNW 21:39:09 10° N
Cosmos 1269 Rocket 4.1 21:30:51 10° NNW 21:36:09 68° ENE 21:41:09 11° SSE
deb Kosmos-1763 4.1 21:35:59 10° NNW 21:39:45 75° ENE 21:43:06 13° SSE
Cosmos 1125 Rocket 3.5 21:35:47 10° S 21:40:58 65° ESE 21:46:09 10° NNE
Helios 1B rocket 2.6 21:37:24 10° N 21:41:32 77° WNW 21:45:37 10° SSW
Cosmos 1862 4.0 21:38:56 10° SSE 21:42:28 34° E 21:46:05 10° NNE
Cosmos 1733 Rocket 4.0 21:40:35 12° SSE 21:43:51 29° E 21:47:37 10° NNE
Cosmos 1340 2.7 21:44:34 10° N 21:48:22 68° ENE 21:51:34 14° SSE
NOAA 11 4.3 21:44:53 10° SSE 21:50:22 86° WSW 21:55:55 10° NNW
Cosmos 2263 4.2 21:44:52 10° SSW 21:50:38 84° ESE 21:56:24 10° NNE
Lacrosse 4 Rocket 1.5 21:46:34 10° NNW 21:51:07 80° ENE 21:54:34 16° SE
Cosmos 1869 Rocket 4.0 21:47:24 10° SSW 21:51:43 65° W 21:56:05 10° N
Gbstr 26 Del rocket 4.4 21:47:21 10° WNW 21:51:56 37° N 21:55:49 10° ENE
SAR-Lupe-4 4.4 21:52:44 10° S 21:56:12 48° W 21:59:42 10° NNW
Cosmos 2369 Rocket 2.8 21:54:53 10° SW 22:00:29 61° WNW 22:06:09 10° NNE
ATLAS CENTAUR R/B 3.2 22:02:49 13° E 22:02:49 13° E 22:03:58 10° ENE
SL-08 RB Rocket 3.8 22:00:56 16° SSE 22:04:37 71° ENE 22:09:16 10° N
Cosmos 158 Rocket 4.3 22:01:09 10° NNW 22:05:58 59° WSW 22:10:14 13° S
Cosmos 494 Rocket 4.5 22:01:22 10° N 22:06:25 47° ENE 22:09:45 20° SE
Cosmos 1606 3.5 22:02:48 10° NNW 22:06:29 49° W 22:10:08 10° S
Cosmos 1833 4.3 22:01:29 10° NNW 22:07:20 87° WSW 22:11:43 18° SSE
Cosmos 1867 3.9 22:02:06 10° NNW 22:07:29 55° NE 22:11:15 19° ESE
H-2A R/B 2.1 22:11:04 18° SSE 22:15:05 73° ENE 22:20:23 10° N
COSMOS 2455 4.0 22:10:32 10° SW 22:16:19 47° NW 22:22:08 10° NNE
Cosmos 2297 Rocket 4.2 22:13:22 10° N 22:17:06 18° NE 22:20:50 10° E
ATLAS 5 CENTAUR R/B 2.8 22:12:15 10° NW 22:18:08 59° WSW 22:22:52 19° SSE
CARTOSAT-1 4.5 22:16:12 22° ESE 22:18:18 35° ENE 22:22:14 10° N
Cosmos 1674 Rocket 3.6 22:14:32 10° N 22:18:51 60° E 22:21:11 25° SSE
Cosmos 1378 Rocket 4.4 22:14:58 10° N 22:19:04 35° ENE 22:20:59 24° ESE
Lacrosse 5 rocket 2.3 22:17:47 10° WSW 22:21:14 43° NNW 22:24:47 10° NE
Landsat 7 4.0 22:21:54 24° SE 22:24:37 59° ENE 22:29:18 10° N
ERS-1 Rocket 4.2 22:24:02 10° SSW 22:28:42 38° W 22:33:25 10° NNW
BREEZE-M DEB (TANK) 3.4 22:27:15 10° WNW 22:30:39 76° SSW 22:40:24 17° ESE
Cosmos 1656 Rocket 3.6 22:26:10 10° SSW 22:31:33 66° ESE 22:37:03 10° NNE
Meteor 1-27 Rocket 4.1 22:27:10 10° NNW 22:32:51 62° W 22:37:24 16° S
ARGOS 3.7 22:28:52 14° S 22:33:22 55° W 22:38:38 10° NNW
Okean 3 3.7 22:29:54 10° N 22:34:01 53° ENE 22:35:35 33° SE
H-2A R/B 3.0 22:33:43 25° ESE 22:35:07 31° ENE 22:38:47 10° N
Nadezhda 4 Rocket 3.9 22:30:13 12° S 22:36:07 89° E 22:42:19 10° N
Cosmos 1092 Rocket 4.0 22:31:56 20° S 22:36:16 65° E 22:42:21 10° NNE
ISS -2.3 22:34:26 10° W 22:37:30 37° NNW 22:40:35 10° NE
IGS 5A 3.8 22:36:31 32° SE 22:38:03 51° ENE 22:42:06 10° N
Terra 2.0 22:37:35 30° SE 22:39:46 59° ENE 22:44:28 10° N
USA 215 3.6 22:37:58 24° SSE 22:41:59 56° SW 22:48:26 10° WNW
Alouette 2 Rocket 4.4 22:35:41 10° SSW 22:43:16 84° WNW 22:48:06 10° NNE
Cosmos 1437 3.0 22:52:26 10° NNW 22:55:37 61° W 22:56:08 51° SW
Cosmos 1908 Rocket 3.5 22:55:35 36° S 22:57:22 79° E 23:01:50 10° NNE
ARGOS Delta rocket 4.5 22:56:21 10° NNE 23:00:22 32° E 23:00:40 31° ESE
SPOT 5 4.3 22:56:51 15° SSW 23:00:49 36° W 23:05:41 10° NNW
CZ-2C R/B 4.3 23:00:54 10° NE 23:04:05 16° E 23:04:11 16° E
Milstar 3 4.1 22:57:51 10° SW 23:05:05 24° S 23:05:32 23° S
Cosmos 2251 Rocket 3.6 23:00:18 10° NNW 23:05:31 69° WSW 23:07:41 35° S
Cosmos 1633 4.1 23:07:12 23° ENE 23:07:12 23° ENE 23:09:28 10° NE
Cosmos 2227 Rocket 3.0 23:02:10 10° NNW 23:07:33 41° NE 23:10:00 27° ESE
DMSP B5D2-2 4.2 23:02:26 10° N 23:07:39 76° WNW 23:11:06 22° SSW
Okean 2 Rocket 3.5 23:08:46 40° ESE 23:09:13 42° E 23:13:24 10° NNE
CENTAUR R/B 3.8 23:03:15 10° WSW 23:09:13 45° NW 23:16:03 10° NNE
Cosmos 2219 3.3 23:09:12 10° NNW 23:14:56 70° WSW 23:17:12 37° S
Spot 4 3.9 23:17:07 46° SE 23:18:27 71° ENE 23:23:17 10° N
Cosmos 1943 Rocket 4.1 23:14:15 10° WSW 23:19:01 28° NW 23:23:47 10° N
deb Chang Zheng 4 3.6 23:14:47 10° NNE 23:19:11 60° ESE 23:19:47 54° SE
CZ-4 R/B 3.8 23:15:01 10° NNE 23:19:38 61° ESE 23:20:29 51° SSE
Cosmos 1812 2.6 23:16:10 10° N 23:20:04 79° W 23:20:33 65° SSW
Meteor 1-14 Rocket 4.3 23:17:48 30° SSW 23:20:52 87° W 23:26:42 10° N
Cosmos 1782 Rocket 3.4 23:23:55 55° S 23:24:52 89° ESE 23:29:17 10° N
PSLV R/B 4.2 23:29:56 40° NNW 23:29:56 40° NNW 23:31:50 10° NNW
Lacrosse 4 Rocket 4.0 23:27:25 10° W 23:29:08 12° WSW 23:30:51 10° SW
GEOS 3 Rocket 3.9 23:30:20 43° S 23:31:42 55° WSW 23:36:51 10° NW
Cosmos 2369 4.3 23:33:38 36° ESE 23:33:57 37° ESE 23:39:08 10° NE
SL-19 R/B 4.5 23:28:22 10° NNE 23:34:26 85° WNW 23:37:41 31° SSW
Cosmos 1980 Rocket 4.4 23:35:37 11° E 23:35:37 11° E 23:36:21 10° E
Sich 1 Rocket 4.5 23:34:14 28° SW 23:36:09 44° WNW 23:40:25 10° N
Cosmos 2344 4.3 23:28:49 10° WSW 23:36:22 57° NW 23:45:17 10° NE
Meteor 2-4 Rocket 4.5 23:34:01 10° N 23:38:56 36° ENE 23:40:11 32° E
Gbstr 26 Del rocket 2.7 23:34:55 10° WNW 23:39:18 80° NNE 23:39:33 75° E
Meteor 1-11 Rocket 4.5 23:38:32 36° ESE 23:39:36 39° E 23:45:03 10° NNE
ATLAS CENTAUR R/B 1.7 23:39:00 36° WSW 23:40:22 60° NW 23:44:10 10° NNE
Cosmos 405 Rocket 3.2 23:38:17 10° NNW 23:41:53 49° W 23:41:56 49° W
Cosmos 1975 Rocket 3.5 23:40:12 10° NNW 23:44:34 54° W 23:45:23 46° SW
Cosmos 1655 Rocket 4.0 23:42:11 38° SSW 23:44:46 84° W 23:51:04 10° N
CZ-4C R/B 3.3 23:46:58 79° S 23:47:13 88° WSW 23:51:22 10° NNW
Okean 1 3.4 23:46:23 10° NNW 23:50:22 67° W 23:50:24 67° W
ALOS 2 3.4 23:53:43 38° E 23:54:04 39° ENE 23:58:09 10° N
H-2A R/B 4.3 23:51:42 10° SW 23:55:00 16° W 23:58:19 10° NW
BREEZE M DEB (TANK) 3.5 23:50:17 10° W 23:56:01 51° NNW 23:57:09 31° NE
